User: anonymous   Login
Location: Unspecified
(0.0000°N, 0.0000°E)
Time: 08:50:25
(UTC+00:00)
Language:

TBA - TO BE ASSIGNED - Orbit

View from above orbital plane
View from above orbital plane
View from above satellite
View from above satellite

Ground track
Ground track

The orbit is defined by the following mean orbital elements,

1 68524U          26145.25704543 +.00000000 +00000-0 +95814-3 0 00006
2 68524  53.1581 132.4949 0001495 103.6401 256.4769 15.34408655    06
Epoch (UTC): 25 May 2026 06:10:08
Eccentricity: 0.0001495
inclination: 53.1581°
perigee height: 462 km
apogee height: 464 km
right ascension of ascending node: 132.4949°
argument of perigee: 103.6401°
revolutions per day: 15.34408655
mean anomaly at epoch: 256.4769°

The dashed part of the orbit path shows where the satellite is in the earth's shadow,  

DLR